FW5940 Weather Reports


Display with metric or nautical units.
time (UTC)temp
F
wind
direction
speed
MPH
gust
MPH
rain 1hr
in
rain 24hr
in
rain mn
in
humidity
%
barometer
mb
20260503181515 70 274 5.0 11.0 0.00 0.00 0.00 42 1012.0
20260503180516 71 289 2.0 5.0 0.00 0.00 0.00 44 1011.9
20260503175516 72 307 2.0 3.0 0.00 0.00 0.00 41 1011.8
20260503174516 73 322 1.0 3.0 0.00 0.00 0.00 38 1011.7
20260503173515 73 321 2.0 7.0 0.00 0.00 0.00 37 1011.7
20260503172537 74 305 3.0 6.0 0.00 0.00 0.00 37 1011.7
20260503171515 75 308 4.0 10.0 0.00 0.00 0.00 35 1011.8
20260503170557 75 307 5.0 10.0 0.00 0.00 0.00 34 1011.7
20260503150538 78 344 5.0 12.0 0.00 0.00 0.00 33 1011.5
20260503130516 79 335 4.0 8.0 0.00 0.00 0.00 34 1012.5
20260503110516 76 98 2.0 8.0 0.00 0.00 0.00 39 1014.0
20260503081520 70 276 2.0 6.0 0.00 0.00 0.00 46 1015.9
20260503080537 70 312 2.0 6.0 0.00 0.00 0.00 45 1015.9
20260503072537 67 257 3.0 7.0 0.00 0.00 0.00 51 1015.9
20260503071516 65 238 3.0 6.0 0.00 0.00 0.00 53 1015.9
20260503070518 64 208 2.0 5.0 0.00 0.00 0.00 57 1016.0
20260503054515 51 0.0 0.0 0.00 0.00 0.00 75 1016.0
20260503053515 50 0.0 0.0 0.00 0.00 0.00 77 1016.0
20260503052539 48 0.0 0.0 0.00 0.00 0.00 77 1016.0
20260503051516 47 0.0 0.0 0.00 0.00 0.00 78 1016.0
20260503050518 46 196 0.0 2.0 0.00 0.00 0.00 78 1016.1
20260503045516 45 0.0 0.0 0.00 0.00 0.00 78 1016.2
20260503044518 45 197 1.0 2.0 0.00 0.00 0.00 79 1016.1
20260503043515 44 196 1.0 4.0 0.00 0.00 0.00 79 1016.0
20260503042556 44 181 0.0 4.0 0.00 0.00 0.00 79 1015.9
20260503041516 43 103 2.0 3.0 0.00 0.00 0.00 79 1015.9
20260503040516 44 0.0 0.0 0.00 0.00 0.00 79 1015.9
20260503035537 44 0.0 0.0 0.00 0.00 0.00 79 1015.9
20260503034537 44 100 1.0 2.0 0.00 0.00 0.00 80 1015.9
20260503033516 44 100 0.0 1.0 0.00 0.00 0.00 79 1016.0
20260503032516 44 100 0.0 2.0 0.00 0.00 0.00 79 1016.0
20260503031515 44 100 0.0 2.0 0.00 0.00 0.00 79 1016.0
20260503030517 44 0.0 0.0 0.00 0.00 0.00 78 1016.0
20260503025515 44 0.0 0.0 0.00 0.00 0.00 78 1016.1
20260503024517 45 91 0.0 2.0 0.00 0.00 0.00 77 1016.0
20260503023516 46 91 0.0 1.0 0.00 0.00 0.00 77 1016.1
20260503022517 45 0.0 0.0 0.00 0.00 0.00 77 1016.1
20260503021535 45 91 1.0 2.0 0.00 0.00 0.00 77 1016.1
20260503020516 45 0.0 0.0 0.00 0.00 0.00 76 1016.2
20260503015516 45 91 0.0 1.0 0.00 0.00 0.00 76 1016.3
20260503014535 46 91 0.0 1.0 0.00 0.00 0.00 75 1016.2
20260503013517 46 0.0 0.0 0.00 0.00 0.00 74 1016.1
20260503012536 47 0.0 0.0 0.00 0.00 0.00 73 1016.1
20260503011601 47 91 0.0 2.0 0.00 0.00 0.00 73 1016.2
20260503010536 47 91 0.0 2.0 0.00 0.00 0.00 74 1016.2
20260503005535 47 0.0 0.0 0.00 0.00 0.00 74 1016.3
20260503004516 47 91 1.0 3.0 0.00 0.00 0.00 73 1016.3
20260503003536 48 90 0.0 1.0 0.00 0.00 0.00 72 1016.3
20260503002517 48 90 1.0 3.0 0.00 0.00 0.00 73 1016.2
20260503001516 48 0.0 0.0 0.00 0.00 0.00 73 1016.3
20260503000515 48 0.0 0.0 0.00 0.00 0.00 72 1016.4
20260502235515 49 0.0 0.0 0.00 0.00 0.00 71 1016.5
20260502234536 49 90 0.0 1.0 0.00 0.00 0.00 71 1016.5
20260502233516 49 90 2.0 3.0 0.00 0.00 0.00 71 1016.7
20260502232520 49 90 1.0 3.0 0.00 0.00 0.00 71 1016.8
20260502231515 49 90 0.0 2.0 0.00 0.00 0.00 72 1016.9
20260502230516 50 90 0.0 1.0 0.00 0.00 0.00 71 1017.0
20260502225515 50 0.0 0.0 0.00 0.00 0.00 71 1017.0
20260502224516 50 0.0 0.0 0.00 0.00 0.00 72 1017.0
20260502223516 51 90 1.0 2.0 0.00 0.00 0.00 70 1017.1
20260502222516 51 0.0 0.0 0.00 0.00 0.00 70 1017.2
20260502221515 51 90 0.0 1.0 0.00 0.00 0.00 69 1017.3
20260502220516 51 90 1.0 2.0 0.00 0.00 0.00 69 1017.3
20260502215515 52 90 0.0 1.0 0.00 0.00 0.00 69 1017.3
20260502214515 52 90 1.0 2.0 0.00 0.00 0.00 67 1017.4
20260502213536 53 89 0.0 1.0 0.00 0.00 0.00 68 1017.5
20260502212518 53 0.0 0.0 0.00 0.00 0.00 68 1017.5
20260502211517 53 89 1.0 2.0 0.00 0.00 0.00 67 1017.5
20260502210515 54 89 1.0 2.0 0.00 0.00 0.00 66 1017.5
20260502205516 53 77 1.0 2.0 0.00 0.00 0.00 67 1017.7
20260502204515 53 77 0.0 2.0 0.00 0.00 0.00 67 1017.7
20260502203517 55 76 0.0 3.0 0.00 0.00 0.00 64 1017.8
20260502202515 56 66 2.0 4.0 0.00 0.00 0.00 65 1017.8
20260502201517 56 62 1.0 2.0 0.00 0.00 0.00 64 1017.8
20260502200516 56 61 0.0 1.0 0.00 0.00 0.00 63 1017.9
20260502195535 57 0.0 0.0 0.00 0.00 0.00 61 1017.9
20260502194516 58 0.0 0.0 0.00 0.00 0.00 60 1017.8
20260502193515 59 60 1.0 3.0 0.00 0.00 0.00 58 1017.8
20260502192515 60 60 0.0 1.0 0.00 0.00 0.00 56 1017.8
20260502191515 60 0.0 0.0 0.00 0.00 0.00 54 1017.7
20260502190517 62 0.0 0.0 0.00 0.00 0.00 52 1017.7
20260502185516 64 60 1.0 2.0 0.00 0.00 0.00 46 1017.6
20260502184515 64 60 1.0 2.0 0.00 0.00 0.00 44 1017.6
20260502183536 65 60 2.0 4.0 0.00 0.00 0.00 44 1017.5
20260502182515 67 60 1.0 2.0 0.00 0.00 0.00 41 1017.5